CAPE
0 0 0 1 3 11 16 6 5 3 3 4 16 9 46 55 48 67 47 55 49 55 18 15 15 26 22 21 31 20 12 18 25 30 30 32 23 30 22 20 15 15 49 80 92 56 60 90 90 72 74 46 42 42
0 0 0 0 0 0 1 2 11 10 6 6 17 54 47 63 50 56 62 56 64 53 39 25 5 12 21 30 26 48 13 15 33 40 45 43 39 37 18 34 35 34 52 74 52 61 48 37 118 131 69 84 71 49
5 3 0 0 0 5 9 10 17 43 33 17 20 54 79 50 41 21 60 43 17 16 10 27 16 17 12 10 33 82 48 28 37 33 58 49 25 31 42 33 36 46 52 72 56 13 78 58 62 110 123 90 62 94
2 6 10 5 1 0 0 0 0 5 14 12 8 10 24 15 30 37 62 63 65 67 38 8 4 2 11 11 32 36 40 23 33 32 86 52 46 28 33 29 35 24 38 25 34 25 23 112 96 108 102 44 33 29
0 0 0 0 2 8 5 3 0 4 11 12 10 6 11 24 28 37 75 63 53 66 54 24 11 3 4 1 12 23 28 30 73 68 69 39 37 27 24 21 6 15 5 40 53 76 94 64 69 50 54 51 26 14
0 0 0 0 0 0 0 7 14 11 4 5 10 15 17 25 18 53 86 33 39 83 95 28 10 1 0 3 21 26 30 58 100 59 50 50 32 44 59 21 0 24 41 54 39 39 47 40 31 47 51 26 11 15
1 0 0 0 0 0 0 0 0 0 0 9 17 13 19 48 53 67 32 1 27 37 78 45 13 4 0 12 9 16 17 49 63 59 35 35 31 36 56 38 0 0 5 39 32 32 45 44 74 36 10 12 10 10
1 2 5 0 0 0 0 0 0 0 0 0 0 5 16 23 38 52 60 7 37 36 70 60 15 3 9 37 22 6 22 49 54 37 18 21 22 32 43 0 0 0 4 17 13 18 31 45 2 5 4 7 10 6
0 0 0 0 1 4 0 0 0 0 0 0 0 7 34 44 69 28 34 9 75 64 102 52 10 21 5 28 47 18 20 36 23 32 22 26 38 47 0 0 1 0 2 21 25 58 25 4 14 7 2 3 2 2
1 2 0 0 0 19 0 0 0 0 1 1 16 57 44 52 12 26 46 59 16 43 125 45 7 8 17 50 80 70 61 54 86 28 15 45 21 1 0 2 6 4 3 15 21 41 6 2 16 5 1 2 4 4
0 0 0 0 1 9 18 0 0 0 0 41 48 35 63 0 57 55 84 86 75 72 51 4 5 5 15 31 46 64 46 39 52 36 50 51 4 59 43 38 19 27 20 8 31 28 10 2 1 2 3 5 4 5
0 0 0 0 4 7 27 12 0 17 38 34 25 15 51 66 80 55 49 32 22 21 31 3 17 16 19 7 23 41 28 34 32 59 52 21 6 59 87 12 18 36 34 13 2 4 0 0 0 3 4 5 5 4
0 0 0 0 3 4 21 14 0 2 4 32 46 41 77 42 44 53 27 25 37 24 37 23 33 24 33 19 43 46 70 69 41 80 41 27 24 49 75 13 30 12 2 3 2 0 0 1 1 4 4 2 1 1
0 0 3 6 0 0 17 13 12 34 40 58 47 25 29 45 29 8 9 17 30 35 50 46 79 59 23 51 36 61 42 61 53 24 23 133 53 43 95 81 33 7 6 5 2 1 0 1 3 3 13 1 1 8
0 0 0 0 0 0 1 11 5 82 68 66 42 19 24 17 17 26 32 37 35 42 55 55 75 116 73 47 76 49 42 44 34 36 43 4 6 63 64 35 4 1 0 0 0 0 0 0 1 2 3 5 13 1
0 0 20 1 2 0 0 11 55 88 155 45 34 35 36 41 73 65 54 58 47 90 116 83 32 33 44 58 58 60 20 31 60 142 89 38 8 22 52 55 3 3 2 0 0 0 2 2 4 10 12 4 1 18
0 35 4 4 0 0 1 20 65 140 73 37 48 30 51 41 60 67 35 29 26 31 44 32 56 19 71 40 30 52 60 105 29 10 5 7 3 39 53 38 14 0 2 2 5 6 9 10 2 20 10 22 15 7
27 39 0 0 7 22 49 48 40 47 38 29 51 76 68 72 118 116 64 33 42 39 30 35 94 29 25 11 50 59 2 21 19 5 5 19 30 41 22 7 5 11 3 4 5 5 2 2 6 8 29 23 9 19
18 17 0 0 12 40 40 40 45 47 21 44 47 43 48 78 54 59 55 49 38 31 40 35 25 37 34 95 124 174 142 20 11 31 82 57 44 44 50 6 2 4 3 8 5 7 8 2 5 7 10 9 15 20
0 3 2 0 14 49 41 35 48 37 36 39 47 56 55 54 61 139 55 50 47 53 33 36 54 120 195 139 193 175 188 137 68 64 73 133 118 18 25 16 21 15 9 3 3 2 7 8 10 7 11 11 13 17
15 43 23 36 51 65 44 38 44 43 31 29 39 35 52 62 84 118 68 49 98 95 64 82 110 105 86 99 117 60 60 41 79 79 56 84 85 20 20 59 42 21 19 17 15 7 0 10 9 9 14 18 16 18
41 1 33 37 46 36 55 40 30 30 47 51 44 48 47 67 74 88 52 61 68 82 102 160 123 67 38 24 78 25 46 19 19 49 23 31 84 67 85 89 44 14 10 12 12 13 8 10 8 5 8 13 8 9
7 13 37 31 35 28 16 24 29 30 39 39 47 39 50 57 56 36 44 32 96 171 82 46 62 42 30 16 5 1 1 7 52 93 82 97 110 88 22 13 9 14 22 22 4 5 8 0 0 2 3 3 7 8
0 21 21 27 32 20 23 24 25 34 34 39 40 40 48 56 43 68 48 82 114 31 23 31 35 48 67 55 94 51 21 28 58 93 59 50 52 11 4 9 4 7 4 2 0 0 1 4 0 1 2 4 4 4
34 4 18 6 13 11 18 37 29 35 36 37 38 50 42 36 54 49 75 65 62 141 65 58 41 42 62 65 79 50 105 27 49 49 72 0 11 3 7 7 8 2 0 4 7 5 4 1 2 2 2 1 0 0
24 7 4 0 11 23 37 42 38 41 40 39 53 67 73 84 37 35 43 77 150 67 90 85 59 33 25 12 36 17 16 16 6 9 11 3 12 22 24 15 12 8 1 0 4 4 0 0 0 0 0 0 0 2
15 6 3 5 12 16 49 40 38 39 37 36 50 45 56 30 22 35 110 88 59 68 52 41 22 13 17 17 30 6 5 6 8 14 11 13 10 3 6 10 4 4 2 0 0 0 0 0 0 0 0 1 4 5
8 0 4 11 34 24 35 37 43 34 74 53 87 32 29 25 34 95 54 50 82 72 23 3 2 3 5 14 11 6 3 2 2 1 2 2 3 4 1 3 0 0 0 0 0 0 0 1 1 0 1 2 2 4
0 5 7 9 25 35 53 62 67 65 78 80 103 103 112 111 192 164 178 137 81 58 19 17 65 4 6 8 7 6 7 9 10 5 5 15 10 9 6 6 5 2 1 0 0 0 0 0 0 1 1 4 4 7
15 10 42 42 47 47 70 82 134 191 79 113 89 53 84 160 202 234 187 129 131 177 177 130 41 24 12 12 11 6 7 8 6 15 27 23 17 8 6 7 7 3 0 0 0 0 0 0 0 4 2 4 6 4
20 36 34 38 46 125 197 210 176 130 156 143 149 137 94 141 140 134 138 203 202 161 29 9 8 15 16 16 12 6 7 7 0 0 1 4 4 5 5 2 1 0 0 0 0 0 0 0 2 2 2 1 1 2
28 20 33 9 63 141 169 34 51 89 99 103 137 129 120 140 45 65 130 111 15 0 0 2 8 14 12 20 5 0 0 2 2 1 0 4 4 1 0 0 0 0 0 0 0 0 0 0 1 1 2 1 1 1
25 36 32 32 33 26 46 57 28 35 70 69 84 105 116 102 39 76 1 0 1 4 7 9 16 13 4 3 5 3 1 2 0 0 0 0 0 0 0 0 0 0 0 0 0 0 0 0 0 0 1 1 0 1
CIN
-0 -0 -0 -1 -4 -3 -2 -2 -3 -4 -8 -16 -12 -17 -6 -4 -1 -0 -0 -0 -0 -0 -0 -0 -0 -0 -0 -0 -0 -0 -0 -0 -0 -0 -0 -0 -0 -0 -0 -0 -0 -0 -0 -0 -0 -0 -0 -0 -0 -0 -0 -4 -3 -3
-0 -0 -0 -0 -0 -0 -7 -5 -1 -3 -6 -10 -11 -5 -6 -3 -3 -2 -0 -0 -0 -0 -0 -0 -2 -2 -0 -0 -0 -0 -0 -0 -0 -0 -0 -0 -0 -0 -0 -0 -1 -0 -0 -0 -0 -0 -5 -2 -0 -0 -0 -0 -0 -5
-1 -2 -1 -0 -1 -3 -3 -2 -2 -2 -2 -7 -8 -2 -1 -5 -5 -0 -0 -0 -11 -0 -0 -0 -0 -0 -0 -0 -0 -0 -0 -0 -0 -0 -0 -0 -0 -0 -0 -0 -0 -0 -0 -0 -0 -1 -0 -0 -0 -0 -0 -0 -7 -1
-1 -0 -0 -3 -1 -0 -0 -4 -2 -6 -4 -5 -6 -7 -3 -4 -1 -0 -0 -0 -0 -0 -0 -0 -0 -0 -0 -0 -0 -0 -0 -0 -0 -0 -0 -0 -0 -0 -0 -0 -0 -0 -0 -0 -0 -6 -0 -0 -0 -0 -0 -3 -4 -3
-0 -0 -0 -0 -1 -3 -3 -4 -2 -5 -3 -4 -4 -7 -6 -4 -2 -0 -0 -0 -0 -0 -0 -0 -0 -0 -0 -0 -0 -0 -0 -0 -0 -0 -0 -0 -0 -0 -0 -0 -0 -0 -0 -0 -2 -0 -0 -0 -0 -4 -2 -0 -5 -0
-0 -0 -0 -0 -0 -0 -0 -4 -5 -6 -5 -5 -4 -1 -1 -3 -4 -0 -0 -0 -0 -0 -0 -0 -0 -0 -0 -0 -0 -0 -0 -0 -0 -0 -0 -0 -0 -0 -0 -0 -0 -0 -0 -0 -0 -0 -0 -1 -3 -6 -0 -0 -0 -0
-0 -0 -0 -0 -0 -0 -0 -0 -0 -0 -0 -3 -3 -3 -3 -0 -0 -0 -0 -0 -3 -0 -0 -0 -0 -0 -0 -0 -1 -0 -0 -0 -0 -0 -0 -0 -0 -0 -0 -0 -0 -0 -1 -1 -1 -0 -4 -1 -0 -1 -0 -0 -0 -0
-0 -0 -0 -0 -0 -0 -0 -0 -0 -0 -0 -0 -0 -4 -4 -3 -1 -0 -0 -5 -3 -0 -0 -0 -0 -0 -0 -0 -0 -0 -0 -0 -0 -0 -0 -0 -0 -0 -0 -0 -0 -0 -0 -0 -0 -0 -4 -30 -10 -0 -0 -0 -0 -0
-0 -0 -0 -0 -0 -1 -0 -0 -0 -0 -0 -0 -0 -7 -0 -0 -0 -0 -9 -18 -0 -0 -0 -0 -0 -0 -0 -0 -0 -0 -0 -0 -0 -0 -0 -0 -0 -0 -0 -0 -0 -0 -0 -0 -6 -2 -27 -1 -0 -0 -0 -0 -0 -0
-0 -0 -0 -0 -0 -1 -0 -0 -0 -0 -2 -1 -2 -0 -0 -0 -6 -9 -0 -0 -0 -0 -0 -0 -0 -0 -0 -0 -0 -0 -0 -0 -0 -0 -0 -0 -0 -0 -0 -0 -0 -0 -0 -0 -12 -3 -0 -3 -0 -0 -0 -0 -0 -0
-0 -0 -0 -0 -1 -0 -0 -0 -0 -0 -0 -0 -0 -0 -0 -2 -0 -0 -0 -0 -0 -0 -0 -0 -0 -0 -0 -0 -0 -0 -0 -0 -0 -0 -0 -0 -0 -0 -1 -11 -24 -33 -31 -14 -11 -18 -11 -0 -0 -0 -0 -0 -0 -0
-0 -0 -0 -0 -4 -0 -1 -0 -0 -0 -0 -0 -0 -0 -0 -0 -0 -0 -0 -0 -0 -0 -0 -1 -0 -0 -0 -1 -0 -0 -0 -0 -0 -0 -0 -0 -0 -0 -0 -67 -53 -33 -27 -38 -0 -0 -0 -0 -0 -0 -0 -0 -0 -0
-0 -0 -0 -0 -3 -3 -1 -0 -0 -2 -8 -0 -0 -0 -0 -0 -0 -0 -0 -0 -0 -0 -0 -0 -4 -7 -0 -0 -0 -0 -0 -0 -0 -0 -0 -0 -0 -2 -4 -58 -26 -39 -32 -0 -0 -0 -0 -0 -0 -0 -0 -0 -0 -0
-0 -0 -1 -2 -2 -0 -2 -1 -1 -0 -0 -0 -0 -0 -0 -0 -0 -0 -0 -0 -0 -0 -0 -0 -0 -0 -0 -0 -0 -0 -0 -0 -0 -0 -0 -0 -2 -3 -4 -2 -8 -32 -0 -0 -0 -0 -0 -0 -0 -0 -10 -9 -2 -1
-0 -0 -0 -1 -0 -0 -0 -0 -0 -0 -0 -0 -0 -0 -0 -0 -0 -0 -0 -0 -0 -0 -0 -0 -0 -0 -0 -0 -0 -0 -1 -0 -0 -0 -6 -0 -1 -5 -11 -11 -32 -4 -0 -0 -0 -0 -0 -0 -0 -0 -0 -0 -0 -0
-0 -0 -0 -1 -0 -0 -0 -4 -0 -0 -0 -0 -0 -0 -0 -0 -0 -0 -0 -0 -0 -0 -0 -0 -0 -0 -0 -0 -0 -0 -0 -1 -1 -4 -0 -0 -3 -1 -0 -1 -10 -0 -0 -0 -0 -0 -0 -0 -0 -0 -0 -0 -0 -0
-0 -0 -6 -6 -0 -0 -10 -0 -0 -0 -0 -0 -0 -0 -0 -0 -0 -0 -0 -0 -0 -0 -0 -0 -0 -1 -0 -0 -0 -0 -0 -0 -4 -0 -0 -0 -0 -1 -3 -3 -18 -0 -0 -0 -0 -0 -0 -0 -0 -0 -0 -0 -1 -1
-0 -0 -0 -0 -0 -0 -0 -0 -0 -0 -0 -0 -0 -0 -0 -0 -0 -0 -0 -0 -0 -0 -0 -0 -0 -0 -1 -2 -0 -2 -0 -0 -0 -0 -0 -0 -0 -0 -3 -2 -0 -0 -0 -0 -0 -0 -0 -0 -0 -0 -0 -0 -1 -0
-1 -2 -0 -0 -0 -0 -0 -0 -0 -0 -0 -0 -0 -0 -0 -0 -0 -0 -0 -0 -0 -0 -0 -0 -0 -0 -0 -0 -0 -0 -0 -1 -0 -0 -0 -0 -1 -8 -23 -4 -8 -12 -0 -0 -0 -0 -0 -0 -0 -0 -0 -0 -0 -0
-1 -7 -7 -12 -2 -0 -0 -0 -0 -0 -0 -0 -0 -0 -0 -0 -0 -0 -0 -0 -0 -0 -0 -0 -0 -0 -0 -0 -0 -0 -0 -0 -0 -0 -0 -0 -0 -16 -7 -0 -0 -0 -0 -0 -0 -0 -0 -0 -0 -0 -0 -0 -0 -0
-0 -0 -1 -0 -0 -0 -0 -0 -0 -0 -0 -0 -0 -0 -0 -0 -0 -0 -0 -0 -0 -0 -0 -0 -0 -0 -0 -0 -0 -0 -0 -0 -0 -0 -0 -0 -0 -0 -0 -0 -0 -0 -0 -0 -0 -0 -0 -0 -0 -0 -0 -0 -0 -0
-0 -3 -0 -0 -0 -0 -0 -0 -0 -0 -0 -0 -0 -0 -0 -0 -0 -0 -0 -0 -0 -0 -0 -0 -0 -0 -0 -0 -0 -0 -0 -0 -0 -0 -0 -1 -0 -0 -0 -0 -0 -0 -0 -0 -0 -0 -0 -0 -0 -0 -0 -0 -0 -0
-1 -1 -0 -0 -0 -0 -0 -0 -0 -0 -0 -0 -0 -0 -0 -0 -0 -0 -0 -0 -0 -0 -0 -0 -0 -2 -0 -0 -0 -0 -0 -0 -0 -0 -0 -0 -0 -0 -1 -2 -0 -0 -0 -0 -0 -0 -0 -0 -0 -0 -0 -0 -0 -0
-0 -0 -0 -0 -0 -0 -0 -0 -0 -0 -0 -0 -0 -0 -0 -0 -0 -0 -0 -0 -0 -0 -0 -1 -0 -0 -0 -0 -0 -0 -0 -2 -0 -0 -0 -0 -0 -0 -0 -0 -0 -0 -0 -0 -0 -0 -0 -0 -0 -0 -0 -0 -0 -0
-0 -0 -0 -0 -0 -0 -0 -0 -0 -0 -0 -0 -0 -0 -0 -0 -0 -0 -0 -0 -0 -0 -0 -0 -0 -0 -0 -0 -0 -0 -4 -6 -2 -0 -0 -0 -0 -1 -0 -0 -0 -0 -0 -0 -0 -0 -0 -0 -0 -0 -0 -0 -0 -0
-0 -0 -0 -0 -0 -0 -0 -0 -0 -0 -0 -0 -0 -0 -0 -0 -0 -0 -0 -0 -0 -0 -0 -0 -0 -0 -0 -1 -0 -0 -0 -0 -0 -0 -0 -0 -0 -0 -0 -0 -0 -0 -0 -0 -0 -0 -0 -0 -0 -0 -0 -0 -0 -0
-0 -0 -0 -0 -0 -0 -0 -0 -0 -0 -0 -0 -0 -0 -0 -0 -0 -0 -0 -0 -0 -0 -0 -7 -12 -0 -0 -0 -0 -0 -0 -0 -0 -0 -0 -0 -0 -0 -0 -0 -0 -0 -0 -0 -0 -0 -0 -0 -0 -0 -0 -0 -0 -0
-0 -0 -0 -0 -0 -0 -0 -0 -0 -0 -0 -0 -0 -0 -0 -0 -0 -0 -0 -2 -0 -2 -13 -21 -0 -0 -0 -0 -0 -0 -0 -0 -0 -0 -0 -0 -0 -0 -0 -0 -0 -0 -0 -0 -0 -0 -0 -0 -0 -0 -0 -0 -0 -0
-0 -0 -0 -0 -0 -0 -0 -0 -0 -0 -0 -0 -0 -0 -0 -0 -0 -0 -0 -0 -3 -13 -15 -10 -0 -0 -0 -0 -0 -0 -0 -0 -0 -0 -0 -0 -0 -0 -0 -0 -0 -0 -0 -0 -0 -0 -0 -0 -0 -0 -0 -0 -0 -0
-0 -0 -0 -0 -0 -0 -0 -0 -0 -0 -0 -0 -0 -0 -0 -0 -0 -0 -0 -0 -0 -0 -0 -0 -2 -0 -0 -0 -0 -0 -0 -0 -0 -0 -0 -0 -0 -0 -0 -0 -0 -0 -0 -0 -0 -0 -0 -0 -0 -0 -0 -0 -0 -0
-0 -0 -0 -0 -0 -0 -0 -0 -0 -0 -0 -0 -0 -0 -0 -0 -0 -0 -0 -0 -0 -0 -2 -4 -0 -0 -0 -0 -0 -0 -0 -0 -0 -0 -0 -0 -0 -0 -0 -0 -0 -0 -0 -0 -0 -0 -0 -0 -0 -0 -0 -0 -0 -0
-0 -0 -0 -0 -0 -0 -0 -0 -0 -0 -0 -0 -0 -0 -0 -0 -0 -0 -0 -4 -7 -1 -0 -0 -0 -0 -0 -0 -0 -0 -0 -0 -0 -0 -0 -0 -0 -0 -0 -0 -0 -0 -0 -0 -0 -0 -0 -0 -0 -0 -0 -0 -0 -0
-0 -0 -0 -0 -0 -0 -0 -0 -0 -0 -0 -0 -0 -0 -0 -0 -0 -0 -5 -0 -0 -0 -0 -0 -0 -0 -0 -0 -0 -0 -0 -0 -0 -0 -0 -0 -0 -0 -0 -0 -0 -0 -0 -0 -0 -0 -0 -0 -0 -0 -0 -0 -0 -0
Wind_Speed
7 5 6 5 6 8 12 9 8 6 5 6 6 4 6 11 16 9 3 9 5 4 10 13 10 9 6 4 4 3 4 4 3 5 4 4 5 5 7 11 10 9 8 4 6 5 8 11 20 12 14 16 10 14
7 6 6 6 6 7 7 8 9 8 7 6 3 8 9 10 13 14 3 4 4 3 5 8 11 12 17 14 5 5 7 2 6 4 4 4 5 4 10 11 6 7 6 6 7 10 21 18 13 13 15 11 13 15
9 7 7 7 5 5 7 5 6 9 8 6 3 6 9 9 12 10 5 2 2 2 6 11 13 17 19 18 13 7 6 10 10 9 5 4 7 8 10 10 13 14 15 8 12 12 15 18 15 15 11 16 19 20
10 10 9 7 6 5 4 4 5 6 6 6 5 5 5 6 9 12 6 4 3 3 6 4 1 8 7 11 17 17 15 4 7 5 5 7 7 9 11 15 16 13 16 17 19 19 18 15 9 13 14 14 14 15
9 8 9 9 8 8 7 5 5 6 7 8 7 6 4 11 9 8 6 5 6 6 4 6 14 17 14 11 12 14 12 11 5 5 6 8 11 11 12 15 17 15 18 14 14 15 9 14 13 17 16 13 12 12
9 8 8 8 7 7 7 7 6 4 3 3 5 7 7 8 7 3 2 8 9 7 3 5 3 5 3 10 12 13 10 9 5 5 5 8 16 6 8 12 17 16 17 17 13 15 15 15 14 13 9 11 13 13
9 7 7 6 5 5 4 4 4 4 3 2 1 5 7 8 7 4 2 3 3 5 2 5 4 5 5 5 3 3 6 3 6 4 8 12 10 5 11 20 22 21 21 15 13 13 15 16 8 8 11 13 13 11
8 6 5 6 5 4 4 4 3 2 1 1 1 0 2 5 6 4 7 7 9 3 4 5 5 3 13 5 4 4 4 4 6 6 6 9 8 7 10 19 17 19 19 16 14 12 9 6 8 8 8 10 10 10
6 5 2 4 2 7 5 4 3 2 1 3 3 2 3 4 4 4 13 14 7 4 4 5 4 2 7 6 4 5 5 6 6 8 8 6 9 11 16 16 14 14 15 13 10 7 5 4 11 7 7 7 8 8
6 6 3 2 3 6 8 5 3 3 2 3 5 4 3 3 16 14 4 4 5 4 5 7 9 7 5 6 6 5 6 7 6 9 6 8 15 23 24 23 21 19 17 12 11 9 6 8 7 5 6 6 6 8
5 3 2 1 3 8 8 7 5 4 5 4 4 3 5 6 5 4 5 6 6 6 7 10 15 14 11 9 7 5 3 4 5 7 7 6 8 10 8 6 7 8 10 9 4 4 3 2 5 5 7 7 7 8
4 3 0 2 2 5 9 10 7 6 1 3 2 2 2 3 5 7 6 6 7 7 7 9 7 8 6 4 5 5 5 5 8 5 5 6 9 7 5 1 1 3 4 6 4 3 2 2 3 6 7 8 9 9
3 2 1 2 1 2 7 7 7 3 4 3 4 4 5 7 10 8 10 6 5 5 5 5 4 4 4 4 5 5 8 8 3 5 6 8 11 4 4 4 5 5 5 5 4 2 1 3 4 5 6 8 9 11
2 2 2 2 3 2 6 10 4 7 2 4 7 7 8 7 7 10 13 9 4 4 4 6 7 7 5 8 6 7 7 5 6 6 13 9 5 3 6 5 5 6 5 4 3 2 2 4 6 6 3 5 7 9
3 1 1 3 3 1 3 7 8 6 3 5 6 6 9 8 6 4 5 6 6 4 5 5 4 5 6 7 7 8 6 7 7 9 3 5 3 2 4 4 5 1 2 2 2 1 3 3 5 6 6 8 10 9
3 6 3 5 5 4 1 6 6 3 3 5 7 7 6 7 8 8 8 9 3 4 5 5 5 6 7 5 6 5 5 7 5 4 6 6 6 3 1 3 3 3 5 5 5 4 4 4 5 6 7 9 11 9
4 2 8 5 2 1 3 3 2 5 6 7 6 9 12 11 9 7 3 3 2 3 5 4 6 6 7 8 14 6 5 6 7 7 7 7 4 3 2 1 2 3 5 6 4 4 4 4 6 6 9 8 7 9
5 7 4 0 4 3 4 5 4 5 9 10 10 10 10 9 10 10 10 6 5 5 5 7 6 8 7 8 10 4 2 4 7 7 6 6 4 3 2 5 4 6 8 5 5 4 5 7 8 8 5 6 8 10
4 3 3 2 4 3 3 5 5 6 8 10 10 10 11 9 7 9 9 8 8 7 3 4 8 8 11 10 11 11 8 3 3 5 8 9 7 6 4 6 6 5 6 5 8 7 6 5 7 7 7 7 8 8
7 7 8 6 5 3 5 5 4 6 6 8 10 11 10 9 10 8 8 8 9 10 10 8 12 12 11 11 10 10 10 10 9 9 10 9 8 8 8 7 7 8 7 8 8 7 6 6 6 6 6 7 8 9
7 9 9 8 6 8 6 5 5 5 5 7 9 11 9 8 10 10 10 10 11 11 11 10 11 11 13 12 11 11 13 13 12 11 12 11 8 9 9 8 9 7 8 6 6 5 3 6 6 5 6 7 7 8
4 2 4 6 5 5 6 7 6 6 8 9 10 8 7 8 9 9 9 10 11 10 9 9 10 11 11 14 11 13 14 16 16 12 12 11 10 9 8 7 7 5 5 5 6 5 5 5 4 4 6 7 8 9
3 3 3 5 6 6 6 8 15 14 12 8 11 14 11 11 11 9 7 9 9 8 8 10 11 11 13 15 16 17 15 14 11 11 11 10 9 8 7 4 3 4 4 4 3 4 4 3 4 5 6 8 8 9
1 3 4 5 8 6 5 9 10 12 11 14 16 19 14 9 10 10 10 11 9 9 10 9 7 10 12 13 11 11 10 9 10 9 9 9 7 6 6 3 3 3 2 2 2 2 3 4 5 5 6 7 8 9
5 7 6 8 6 7 10 13 14 14 16 14 16 12 7 5 9 13 13 10 9 9 7 6 7 10 11 11 10 9 7 7 6 8 5 4 5 3 4 4 3 2 2 3 4 3 3 3 4 6 7 8 9 11
10 9 9 7 7 13 13 17 15 17 15 18 18 12 10 11 15 9 8 7 8 5 4 6 8 10 10 8 9 7 6 3 4 7 3 4 4 5 5 6 5 5 4 1 2 4 4 4 5 7 8 9 10 11
9 10 8 10 11 11 10 10 10 9 11 15 10 10 11 7 7 9 9 8 5 3 5 5 6 8 10 8 6 3 4 3 4 5 5 3 2 2 2 2 3 4 4 2 1 3 5 5 6 7 8 8 9 9
8 6 14 13 13 11 17 15 15 17 15 13 13 18 16 8 9 7 5 2 3 5 6 6 6 6 7 6 3 2 1 1 2 4 4 3 3 3 3 4 5 5 3 1 2 2 4 5 6 8 9 9 10 9
10 10 11 12 14 12 15 17 16 13 12 12 13 14 15 11 8 8 8 7 4 4 7 8 7 4 5 4 3 3 2 4 5 6 7 4 5 4 3 3 3 2 1 1 3 3 4 5 7 7 9 8 9 10
15 11 14 17 17 18 15 13 13 11 11 11 12 12 12 11 8 6 7 7 8 7 7 7 6 5 6 6 5 4 3 3 3 5 4 3 2 5 3 3 3 2 1 2 2 3 4 4 6 5 6 7 7 9
8 8 15 15 17 15 15 13 12 12 12 13 12 13 14 12 10 7 9 8 7 6 7 9 8 7 8 6 6 5 5 4 2 2 3 0 1 2 2 2 1 0 0 1 2 3 4 5 5 6 7 9 10 11
9 12 12 17 15 12 11 6 9 12 12 13 14 12 13 13 17 9 8 6 7 8 9 8 8 7 7 2 4 5 6 6 5 4 4 3 4 4 3 2 1 0 1 1 2 3 4 5 5 6 8 10 11 12
8 8 9 9 11 13 7 6 6 11 12 13 14 13 13 13 18 10 4 2 5 5 4 4 1 4 6 5 5 6 7 7 10 9 9 9 7 4 3 2 2 1 1 2 2 3 4 6 6 7 8 10 11 12
Wind_Direction
173 177 176 189 202 212 193 196 217 218 188 174 187 197 216 195 191 197 226 185 209 224 269 269 276 256 245 254 246 46 290 157 180 237 264 249 258 269 272 273 282 263 262 266 237 259 270 346 327 342 331 325 342 325
156 142 153 161 154 159 179 201 206 195 194 195 212 208 211 215 191 186 259 205 227 247 285 327 295 289 273 252 219 226 251 181 206 251 248 290 265 261 272 275 245 256 272 302 306 301 315 298 288 313 316 315 320 316
126 136 144 142 142 160 179 166 174 187 178 159 131 178 188 187 173 178 233 116 92 278 262 235 252 255 240 255 258 241 228 235 251 253 285 281 256 272 271 272 280 268 269 249 256 263 280 308 303 297 316 325 334 311
120 109 102 110 130 149 144 132 135 153 163 165 165 162 180 203 210 206 221 208 237 295 280 283 41 262 241 243 221 228 235 226 254 262 228 246 258 258 270 285 284 279 296 288 283 282 292 287 298 316 325 324 327 327
133 121 110 100 94 94 110 134 137 149 165 171 182 182 209 218 216 205 232 227 214 236 300 303 301 273 235 209 222 222 232 241 239 226 232 242 247 268 272 273 266 267 265 262 264 276 231 308 328 328 321 316 331 329
131 129 123 113 106 98 94 95 97 109 139 183 221 214 190 161 166 199 311 214 209 221 273 280 343 238 236 216 209 228 217 213 221 219 248 247 258 261 269 264 271 271 249 267 262 280 296 291 297 308 303 307 314 315
162 143 133 135 124 115 115 110 104 100 96 87 112 222 227 211 207 194 323 8 121 107 219 263 253 137 223 191 229 228 224 205 226 237 234 253 254 216 258 264 268 275 285 274 274 273 277 285 322 321 315 305 295 292
125 129 166 162 151 140 141 137 131 126 168 123 104 98 318 222 228 277 225 147 146 190 231 258 268 218 175 175 161 159 209 195 210 241 259 253 257 237 253 254 269 260 260 262 271 269 279 7 308 284 277 289 299 309
128 131 128 193 176 204 180 163 157 121 312 230 218 259 173 202 209 227 145 161 202 257 243 200 248 298 159 219 148 174 184 207 216 218 226 236 225 227 242 258 264 253 258 269 271 264 268 252 273 282 301 318 317 319
140 138 113 111 225 193 179 178 165 195 73 196 210 197 208 206 116 118 136 197 203 207 222 247 240 239 202 211 199 207 190 230 224 215 200 229 247 254 260 267 269 269 270 271 267 267 256 252 259 294 302 320 319 313
129 125 133 190 312 211 205 194 193 193 206 202 203 229 80 141 190 212 219 208 188 213 202 231 231 241 230 240 240 234 223 253 249 208 211 226 248 255 239 286 291 283 264 231 259 304 299 307 305 295 301 312 305 297
122 92 79 13 319 208 202 190 185 217 211 52 10 193 188 187 215 215 204 212 219 223 190 215 215 215 227 172 242 221 237 238 244 149 214 242 256 252 152 196 269 72 103 137 175 196 197 260 293 298 303 297 300 312
128 71 11 343 302 190 197 193 198 130 194 213 223 206 202 207 231 230 193 208 210 203 193 182 182 192 146 192 217 237 224 236 235 213 231 245 260 180 168 172 173 139 145 149 163 178 265 259 262 266 291 300 306 305
135 108 45 60 111 144 180 190 232 160 203 234 193 220 224 205 233 218 240 248 272 293 235 212 202 188 190 187 226 238 225 238 235 237 251 248 263 176 148 171 167 167 175 184 211 254 275 287 281 285 282 281 277 276
180 49 345 204 168 141 150 181 219 219 240 235 226 235 221 243 259 277 303 295 256 272 282 248 242 232 209 220 213 228 227 229 222 243 357 64 78 131 135 169 161 41 87 175 193 272 285 281 281 281 285 288 290 289
190 248 195 109 135 118 13 235 183 190 236 239 233 250 258 258 255 261 256 264 293 334 307 259 250 253 236 228 228 241 255 225 254 35 76 69 57 38 168 188 216 182 211 208 222 218 248 268 277 284 296 292 291 274
210 229 106 102 103 235 212 260 179 216 249 226 220 233 254 270 274 272 276 253 202 298 284 283 247 232 320 255 242 231 272 348 37 27 6 355 327 320 277 259 125 242 219 250 239 224 251 265 269 272 285 288 299 295
243 140 148 225 288 254 231 210 234 250 233 236 251 242 246 265 273 264 263 288 286 262 250 256 304 253 245 283 298 354 349 340 327 322 291 269 292 301 310 321 306 233 246 196 222 250 256 258 264 269 277 299 294 285
353 4 95 263 305 296 257 219 221 252 247 249 253 247 259 257 237 260 263 262 274 270 242 244 236 249 258 264 290 303 306 300 280 323 316 303 286 295 286 282 267 242 244 227 236 250 275 298 289 295 296 296 292 300
251 262 272 282 261 248 250 241 215 252 258 255 248 251 256 260 261 253 262 262 252 244 235 236 257 270 285 298 307 302 296 297 293 290 281 272 276 262 252 260 266 260 238 234 244 244 261 259 269 274 287 310 308 297
255 248 232 229 240 225 264 256 232 262 288 264 264 263 257 251 250 249 251 244 244 245 256 264 270 277 280 279 277 278 279 280 277 278 286 292 299 292 291 281 269 259 257 245 244 246 201 259 284 299 297 295 298 294
267 195 267 210 234 240 250 240 258 266 261 265 272 272 266 265 263 257 262 249 246 254 271 280 283 287 287 283 280 283 285 280 276 275 271 271 268 267 269 264 259 237 236 242 245 257 276 288 296 305 297 296 302 296
267 220 231 223 227 239 256 243 249 248 247 260 267 264 260 259 260 262 251 253 260 252 258 277 284 294 293 289 283 278 273 271 271 270 267 262 260 262 269 272 222 229 232 222 233 269 272 352 290 282 296 294 298 301
119 237 230 230 218 245 232 249 256 258 259 245 251 260 260 261 259 250 254 254 257 274 278 286 301 294 302 286 267 259 259 263 265 259 258 256 247 237 240 220 206 222 250 288 237 282 289 288 294 290 302 301 302 304
205 207 223 229 235 226 239 248 251 257 260 261 258 254 262 268 265 264 264 272 276 281 289 293 301 293 308 296 282 278 283 277 266 270 249 202 251 170 185 198 186 184 164 217 219 245 276 291 291 295 305 304 308 309
213 206 209 227 231 242 246 252 245 242 252 256 260 265 269 271 263 251 259 266 273 251 274 294 301 298 304 294 287 285 317 290 267 259 194 172 209 214 200 193 200 188 178 266 249 269 293 299 295 303 303 305 309 306
213 211 215 231 257 266 247 257 257 257 252 257 256 254 256 251 255 261 259 258 262 246 309 297 290 289 295 294 297 318 307 349 10 31 87 95 71 17 332 265 232 79 117 151 278 292 296 300 301 306 308 307 309 314
218 226 232 236 241 245 253 251 259 263 264 269 263 255 250 244 251 263 312 297 239 274 285 281 270 277 285 293 312 265 220 105 106 110 111 113 107 99 99 88 76 74 80 58 293 275 280 297 307 306 306 311 313 313
231 226 235 243 247 248 249 252 254 254 252 260 264 261 261 258 274 283 286 292 323 294 291 297 294 210 230 235 254 262 239 216 222 223 231 224 171 173 158 151 148 144 144 234 178 259 292 302 303 308 309 307 303 298
234 231 242 242 241 243 246 248 256 255 259 267 278 280 271 268 264 261 268 266 264 268 279 277 281 232 237 226 225 217 229 277 292 301 274 279 68 98 141 179 192 161 256 277 303 309 275 284 288 277 291 310 318 327
239 235 235 240 247 250 251 251 249 253 259 261 262 265 267 278 282 277 267 252 252 257 264 267 262 253 249 230 236 223 216 176 177 271 292 73 96 118 121 112 102 105 295 305 319 316 341 318 317 323 325 329 333 333
225 234 238 246 250 255 263 254 254 252 254 248 249 251 257 256 254 248 244 223 237 248 256 259 262 243 210 199 84 73 54 102 121 122 125 120 107 99 111 101 113 327 353 325 337 332 336 333 325 340 332 338 339 337
235 238 249 261 266 267 248 220 244 252 245 249 250 249 249 253 261 263 150 232 260 274 278 254 164 90 116 136 130 113 102 83 79 82 77 72 68 73 93 78 63 49 24 9 13 354 349 347 345 345 344 345 344 346